FENGYUN 1C DEB, 31095

Orbit data source: Space-Track

FENGYUN 1C DEB, 31095 is space debris in SSO originally from a launch on Mon, 10 May 1999 UTC launched from the Taiyaun Space Center, China (TSC). Fengyun 1C debris stems from the Chinese weather satellite Fengyun-1C, which was intentionally destroyed by a Chinese anti-satellite missile in 2007. This event dramatically increased the amount of space debris, with thousands of trackable fragments posing hazards to satellites and human spaceflight. The Fengyun 1C debris cloud has become a focal point in discussions about space sustainability and the need for international regulations to prevent the creation of new debris.

Loading next visibility...
Identifier
31095, 1999-025BGR
Orbit
SSO
Country
Flag of CNCN / PRC
Related business
Manufacturer
Unknown
Mission
Spacecraft
Bus & Motor
Unknown
Mass
Unknown
Launch date (UTC)
1999-05-10 (27 years ago)
Launch vehicle
Unknown
Launch site
Taiyaun Space Center, China (TSC)
Object type
Payload
Rocket body
Debris
Shape & HBR
Unknown shape, 0.1 m
Radar Cross Section
Medium (>0.1 m² and <1 m²)

Expand to show TLE details & history
Last TLE update: 3 days ago

TLE from 3 days ago
0 FENGYUN 1C DEB
1 31095U 99025BGR 26264.00828544  .00000436  00000-0  77528-3 0  9999
2 31095  98.5880 355.7627 0498649 236.1874 119.0816 13.06759777931342
Epoch: 2026-09-21T00:11Z
TLE epoch observation values (Epoch: 2026-09-21T00:11:55.862Z)
Latitude
-0.00003°
Longitude
-7.11434°
Altitude
1,436.988 km
Speed
7.049 km/s
True Right ascension
23h 43m 03s
True Declination
0° 00' 00"
Sunlit
Object was in full shadow at epoch
Visualization orbit readout
Latitude
Unknown
Longitude
Unknown
Altitude
Unknown
Speed
Unknown
Apparent Right ascension
Unknown
Apparent Declination
Unknown
Sunlit
N/A
Visualization observer readout
Local Sidereal Time
11:46:39
Azimuth
Unknown
Elevation
Unknown
Doppler factor
Unknown
Orbital elements
Apogee altitude
1,612.545 km
Perigee altitude
853.486 km
Semi-major axis
7,611.153 km
Eccentricity
0.04986
Inclination
98.588°
RAAN
355.7627°
Arg. of periapsis
236.1874°
True anomaly
123.92256°
Mean anomaly
119.0816°
Eccentric anomaly
121.51719°
Mean motion
3.26864 °/min
Orbital period
110.14 mins
BSTAR
0.00077528
Loading maneuver chart data...
Computing Atmospheric mass density...

Documentation

Showing up to 5 results
|